Regional Weather Roundup
Issued by NWS

Home | Current Version | Previous Version | Text Only | Print | Product List | Glossary On
Versions: 1 2 3 4 5 6 7 8 9 10 11 12 13 14 15 16 17 18 19 20 21 22 23 24 25 26 27 28 29 30 31 32 33 34 35 36 37 38 39 40 41 42 43 44 45 46 47 48 49 50
000
ASUS43 KLOT 191710
RWRIL

ILLINOIS REGIONAL WEATHER ROUNDUP
NATIONAL WEATHER SERVICE CHICAGO/ROMEOVILLE IL
1200 PM CDT SAT APR 19 2014

NOTE: "FAIR" INDICATES FEW OR NO CLOUDS BELOW 12,000 FEET WITH NO
SIGNIFICANT WEATHER AND/OR OBSTRUCTIONS TO VISIBILITY.

* THESE STATIONS ARE NOT UNDER NWS QUALITY CONTROL. THEY ALSO MAY NOT
  REPORT WEATHER SUCH AS PRECIPITATION OR FOG.

ILZ001-002-007-009-015-016-024-191800-
NORTHWEST ILLINOIS

CITY           SKY/WX    TMP DP  RH WIND       PRES   REMARKS
MOLINE         SUNNY     65  28  24 SE12      30.28F
STERLING*      MOSUNNY   63  36  36 SE10      30.31F
SAVANNA*       MOSUNNY   62  32  31 SE13      30.29F
$$

ILZ003-004-008-010-011-017-018-191800-
NORTH CENTRAL ILLINOIS

CITY           SKY/WX    TMP DP  RH WIND       PRES   REMARKS
ROCKFORD       PTSUNNY   59  29  31 SE12      30.33F
FREEPORT*      MOSUNNY   59  31  34 SE13G18   30.33F
ROCHELLE*      MOSUNNY   61  34  35 S10G18    30.33S
DE KALB*       MOSUNNY   57  33  40 SE13      30.34S
PERU*          MOSUNNY   61  34  37 CALM      30.32F
$$

ILZ005-006-012>014-019>023-191800-
NORTHEAST ILLINOIS

CITY           SKY/WX    TMP DP  RH WIND       PRES   REMARKS
CHICAGO-OHARE  PTSUNNY   54  35  48 E8        30.34F
CHICAGO-MIDWAY PTSUNNY   54  39  57 VRB7      30.34F
AURORA         PTSUNNY   60  36  40 SE14      30.33F
LANSING*       SUNNY     59  35  40 E8        30.34F
WAUKEGAN       MOSUNNY   43  34  70 E12       30.36F
DUPAGE AIRPORT MOSUNNY   58  35  42 E7        30.33F
KANKAKEE*      SUNNY     61  39  43 SE9       30.34S
WHEELING       MOSUNNY   51  37  58 VRB5      30.36F
MORRIS*        SUNNY     61  29  30 SE10G17   30.32F
ROMEOVILLE*    MOSUNNY   60  36  40 SE9       30.33F
NORTHERLY ISL    N/A     44  37  76 NE7         N/A
$$

LMZ740>746-191800-
SOUTHERN LAKE MICHIGAN

STATION/POSITION SKY/WX   TEMP    WIND        PRES    VSBY  WAVE
                          AIR SEA DIR/SP/G                  HT/PER
                          (F)     (DEG/KT/KT) (MB)    (MI)  (FT/S)
WAUKEGAN HARBOR            37      80/  7/  8 1029.8S
HARRISON CRIB              40      70/  8/  9   N/A
BURNHAM HARBOR             45      50/  6/  7   N/A
CALUMET HARBOR             44      50/  5/  8 1028.5F
MICHIGAN CITY              55     100/  6/  9   N/A
$$

ILZ025>027-034>036-040-047-049-050-058-095>099-191800-
WEST-CENTRAL ILLINOIS

CITY           SKY/WX    TMP DP  RH WIND       PRES   REMARKS
QUINCY         SUNNY     68  40  35 SE14G22   30.25F
GALESBURG*     SUNNY     65  35  33 SE10      30.28F
MACOMB*        SUNNY     66  34  30 SE13G21   30.29F
JACKSONVILLE*  SUNNY     69  40  35 SE7       30.28F
PITTSFIELD*    SUNNY     69  40  34 SE12      30.27F
$$

ILZ028>032-037-038-041>044-048-051>054-059>061-191800-
CENTRAL ILLINOIS

CITY           SKY/WX    TMP DP  RH WIND       PRES   REMARKS
PONTIAC        SUNNY     64  36  34 SE13      30.32F
BLOOMINGTON    SUNNY     64  31  29 E9        30.32F
DECATUR        SUNNY     68  34  28 SE10      30.30F
PEORIA         SUNNY     66  32  28 S9        30.30F
LACON*         SUNNY     65  34  32 SE10      30.30F
LINCOLN*       SUNNY     69  34  27 SE8       30.29F
SPRINGFIELD    SUNNY     68  38  33 SE8       30.29F
TAYLORVILLE    SUNNY     66  41  39 SE7       30.29F
$$

ILZ033-039-045-046-055>057-062-063-191800-
EAST-CENTRAL ILLINOIS

CITY           SKY/WX    TMP DP  RH WIND       PRES   REMARKS
CHAMPAIGN      SUNNY     67  32  27 SE9       30.31S
RANTOUL*       SUNNY     66  32  27 SE8       30.32F
MATTOON        SUNNY     67  34  29 E7G25     30.29F
PARIS*         SUNNY     67  38  34 SE7       30.30F
$$

ILZ079-100>102-191800-
SOUTHWEST ILLINOIS

CITY           SKY/WX    TMP DP  RH WIND       PRES   REMARKS
BELLEVILLE     SUNNY     67  48  49 VRB5      30.28F
CAHOKIA*       SUNNY     70  47  43 SE7       30.28F
SPARTA*        SUNNY     68  45  42 SE5       30.28F
$$

ILZ064>066-069>071-074>076-080>082-084>086-088>090-092>094-191800-
SOUTH-CENTRAL ILLINOIS

CITY           SKY/WX    TMP DP  RH WIND       PRES   REMARKS
CARBONDALE     SUNNY     69  45  41 E6        30.26F
CAIRO*         SUNNY     74  45  34 E3        30.25S
MARION         SUNNY     72  45  37 E9        30.27F
MT. VERNON     SUNNY     70  43  37 E8        30.29S
CENTRALIA*       N/A     69  40  34 CALM      30.28S
SALEM*         SUNNY     69  46  43 E7        30.28S
METROPOLIS*    SUNNY     72  35  25 SE5       30.23F
$$

ILZ067-068-072-073-078-083-087-091-191800-
SOUTHEAST ILLINOIS

CITY           SKY/WX    TMP DP  RH WIND       PRES   REMARKS
FAIRFIELD*     SUNNY     70  48  46 E6        30.27F
HARRISBURG*    SUNNY     69  44  39 E9G17     30.27F
ROBINSON*      SUNNY     70  40  33 E9        30.29F
CARMI*         SUNNY     71  48  44 E8        30.27F
$$

ABBREVIATIONS USED IN REMARKS
   TC - TEMPERATURE IN CELSIUS
  WCI - WIND CHILL INDEX
   HX - HEAT INDEX
  VSB - VISIBILITY
$$




USA.gov is the U.S. government's official web portal to all federal, state and local government web resources and services.